Lapse_Rate
7.7 8.0 8.1 7.8 7.3 6.7 6.8 7.0 6.8 6.5 6.5 6.5 6.3 6.1 5.9 5.8 5.7 5.6 5.3 5.2 5.2 5.2 5.1 5.2 5.0 4.8 4.8 4.4 4.1 4.1 3.7 3.3 3.6 5.7 5.6 6.1 6.3 6.7 6.7 6.4 6.5 6.8 7.1
7.7 7.9 8.0 8.0 7.4 7.2 7.4 7.0 6.7 6.6 6.6 6.4 6.3 6.1 5.9 5.8 5.7 5.4 5.3 5.2 5.2 5.2 5.2 5.0 4.8 4.6 4.5 4.2 3.9 3.8 3.3 2.9 3.9 5.0 5.9 6.3 6.5 6.6 6.4 6.4 6.5 6.9 6.8
7.9 7.7 7.8 7.8 7.8 7.9 7.7 7.0 6.7 6.7 6.5 6.3 6.3 6.1 5.9 5.7 5.5 5.4 5.3 5.2 5.2 5.1 5.1 4.8 4.8 4.5 4.3 4.0 3.9 3.4 3.0 3.2 4.0 5.0 6.2 6.3 6.4 6.2 6.3 6.1 6.1 6.8 6.8
8.1 8.1 7.9 7.8 8.1 8.1 7.5 7.1 6.8 6.6 6.4 6.3 6.2 6.0 5.8 5.7 5.6 5.5 5.4 5.2 5.1 5.1 4.9 4.7 4.6 4.3 4.2 4.0 3.6 3.1 2.8 3.4 3.7 5.4 6.1 6.1 5.9 6.4 6.2 6.2 6.3 5.8 6.0
7.8 8.2 8.1 8.1 7.9 7.7 7.4 7.2 6.8 6.6 6.5 6.3 6.1 6.0 5.8 5.7 5.6 5.5 5.3 5.2 5.1 5.0 4.7 4.6 4.5 4.4 4.2 3.9 3.5 2.9 2.3 2.5 3.3 5.1 5.8 5.9 6.3 6.2 5.9 6.2 6.3 5.3 4.8
7.9 8.0 8.1 8.1 7.9 7.6 7.3 7.4 7.0 6.6 6.5 6.3 6.2 5.9 5.9 5.7 5.6 5.4 5.2 5.2 5.1 4.9 4.8 4.6 4.5 4.3 4.1 3.8 3.1 2.5 2.5 2.5 4.2 5.0 5.5 5.7 6.1 6.1 6.2 6.3 5.7 4.9 3.8
7.8 7.9 8.1 8.0 7.6 7.5 7.2 7.2 7.2 6.8 6.5 6.3 6.1 6.0 5.8 5.6 5.4 5.3 5.1 5.1 5.1 4.8 4.7 4.5 4.4 4.1 4.1 3.6 3.3 2.9 3.2 4.1 4.9 5.1 5.4 5.5 5.8 6.2 6.2 6.3 5.6 4.5 4.0
7.5 7.9 8.0 8.1 7.7 7.4 7.2 7.2 7.0 6.6 6.5 6.3 6.1 6.0 5.7 5.5 5.4 5.1 5.0 4.9 4.9 4.7 4.6 4.3 4.3 4.1 3.8 3.3 3.3 4.0 4.7 5.3 5.3 5.2 5.4 5.4 6.1 6.2 6.4 5.9 5.3 4.1 4.3
7.5 7.7 8.1 8.2 7.9 7.6 7.4 7.3 7.1 6.7 6.6 6.4 6.1 5.9 5.6 5.4 5.2 5.0 4.9 5.0 4.8 4.7 4.4 4.3 4.1 4.0 3.7 3.4 3.8 4.5 5.5 5.4 5.4 5.6 5.7 5.8 6.0 6.4 6.2 5.5 4.6 4.6 5.4
7.3 7.5 7.8 7.8 7.8 7.6 7.3 7.3 7.0 6.4 6.1 6.0 6.1 5.8 5.5 5.3 5.1 5.0 4.9 5.0 4.8 4.8 4.2 4.3 4.2 4.0 3.5 3.4 4.1 4.8 5.6 5.6 5.9 6.2 6.0 6.1 6.4 6.8 5.9 5.2 4.6 5.4 5.5
7.4 7.3 7.4 7.6 7.7 7.4 7.1 7.0 6.6 6.4 6.1 5.9 5.8 5.5 5.4 5.2 5.1 5.1 4.9 4.8 4.8 4.6 4.4 4.4 4.2 4.0 3.6 3.6 4.3 5.1 5.6 5.7 5.9 6.2 6.2 6.3 6.6 6.7 6.2 5.2 5.6 6.0 5.9
7.3 7.7 7.5 7.6 7.6 7.3 6.9 6.8 6.7 6.4 6.1 5.9 5.6 5.5 5.2 5.1 5.1 5.1 4.8 4.7 4.7 4.6 4.4 4.2 4.3 4.0 3.9 3.9 4.4 5.2 5.6 5.5 6.2 6.4 6.3 6.4 6.3 6.2 6.3 6.1 5.3 5.9 6.4
7.5 7.8 7.4 7.2 7.2 7.0 6.7 6.8 6.6 6.4 6.0 5.6 5.4 5.3 5.0 5.1 5.1 4.9 4.6 4.6 4.4 4.5 4.3 4.0 4.2 3.9 4.0 4.2 4.3 5.3 5.5 5.6 6.3 6.4 6.3 6.3 6.1 6.6 6.8 6.4 6.7 7.0 6.6
6.8 6.9 7.1 7.3 7.1 6.6 6.3 6.1 6.1 6.1 5.7 5.2 5.1 5.1 5.1 5.1 5.0 4.8 4.5 4.5 4.2 4.3 4.3 4.1 4.0 3.7 3.9 4.5 4.6 5.5 5.2 5.5 6.2 6.5 6.0 6.5 6.4 6.3 6.1 6.6 6.6 6.2 6.6
7.0 7.2 6.7 5.9 6.2 6.4 6.1 5.8 5.5 5.1 4.8 4.7 4.7 4.8 4.7 4.9 5.0 4.6 4.4 4.2 4.0 4.2 4.2 3.9 3.7 3.6 4.1 4.5 4.6 5.5 5.2 5.5 5.7 6.4 6.2 6.1 6.2 6.0 6.0 5.3 5.5 6.1 6.1
7.2 7.0 6.5 6.5 6.2 5.6 5.6 5.3 4.7 4.7 4.5 3.9 4.2 3.7 4.7 5.0 5.0 4.5 4.3 4.0 3.8 4.1 4.2 4.1 3.8 3.9 4.4 4.7 5.0 5.4 5.3 5.5 5.3 6.1 6.5 6.2 6.4 6.1 5.9 6.0 6.1 5.8 5.5
6.0 6.1 6.2 5.7 4.6 4.8 4.9 4.7 4.6 4.3 3.7 3.2 3.3 4.2 4.6 4.8 4.6 4.4 4.3 3.9 3.9 4.1 4.2 4.0 3.9 4.1 4.5 4.8 5.0 5.5 5.4 5.6 5.6 5.6 6.0 5.7 5.9 5.9 5.7 5.4 5.7 5.4 5.7
4.3 4.6 4.7 4.6 4.8 5.0 4.8 4.6 4.4 4.2 4.1 2.8 3.6 4.2 4.6 4.6 4.4 4.3 4.1 3.8 3.9 4.0 4.0 3.8 3.8 4.1 4.5 4.7 5.0 5.3 5.3 5.3 5.4 5.3 5.3 5.8 5.7 5.6 5.5 5.4 5.8 5.8 5.7
3.5 4.1 4.7 4.8 4.9 5.0 4.6 4.0 4.3 3.7 3.2 3.9 3.6 4.2 4.6 4.5 4.3 4.1 3.9 3.7 3.9 3.9 3.8 3.7 3.6 4.1 4.2 4.4 4.5 5.4 5.3 5.2 5.4 5.1 5.2 5.6 6.0 5.6 5.5 5.4 5.5 5.6 5.8
3.3 3.8 4.0 4.3 4.3 4.2 4.5 3.9 3.1 3.1 3.7 3.6 3.7 4.3 4.3 4.1 4.2 4.0 3.7 3.8 3.8 3.6 3.6 3.4 3.4 4.0 4.1 4.1 4.0 5.2 5.3 5.3 5.5 5.0 5.2 5.6 5.7 5.6 5.5 5.5 5.6 6.0 6.0
4.2 4.4 4.4 4.6 4.4 3.7 3.2 3.0 3.4 3.5 3.3 3.4 3.7 3.9 4.2 4.2 4.0 3.8 3.7 3.8 3.7 3.5 3.2 3.0 3.0 4.0 4.1 3.9 4.0 5.0 5.2 5.4 5.4 5.0 4.6 5.1 5.4 6.1 5.4 5.3 5.6 6.2 6.4
4.5 4.4 4.0 3.7 3.5 3.1 3.3 3.2 3.3 3.5 3.7 3.7 4.0 4.1 4.2 4.1 3.8 3.7 3.6 3.8 3.6 3.2 2.9 2.8 3.3 4.2 4.1 3.8 4.1 4.9 4.9 5.0 5.2 4.9 4.9 5.1 5.8 5.9 5.7 5.3 5.6 5.5 5.8
4.4 4.3 3.1 3.3 3.3 3.2 3.4 3.7 3.8 3.7 3.8 3.9 3.9 4.0 4.1 4.1 3.9 3.7 3.8 3.6 3.3 2.9 2.8 2.7 3.7 4.1 4.0 3.9 4.3 4.8 4.8 4.9 5.1 5.1 4.9 5.0 5.3 5.9 6.2 5.7 5.6 5.7 5.3
4.3 3.7 2.8 2.6 2.6 3.1 3.6 3.7 4.0 4.1 4.1 4.2 4.2 4.1 4.3 4.1 3.9 3.8 3.6 3.4 3.1 2.8 2.8 3.1 3.8 3.9 3.7 3.8 4.4 4.8 5.0 5.1 5.2 5.2 5.1 5.3 5.5 5.9 6.0 6.0 5.9 5.6 5.5
4.1 3.1 2.4 2.6 3.1 3.4 3.7 3.8 4.1 4.2 4.3 4.5 4.4 4.5 4.1 3.9 3.9 3.7 3.4 3.1 2.9 2.8 2.7 3.3 3.5 3.4 3.3 3.6 4.2 4.6 5.0 5.2 5.3 5.4 5.4 5.2 5.5 5.7 6.1 6.0 5.8 5.4 5.5
2.8 2.8 3.0 3.0 3.4 3.6 3.8 4.0 4.1 4.3 4.4 4.5 4.2 4.0 3.9 3.8 3.7 3.5 3.2 3.0 2.9 2.8 3.3 3.5 3.1 2.9 3.1 3.6 4.2 4.5 5.0 5.1 5.2 5.2 5.2 5.3 5.2 5.6 5.8 5.7 5.8 5.4 5.4
Wind_Speed
17 17 18 17 18 17 16 15 15 15 15 14 14 13 12 11 10 8 8 7 8 8 8 9 11 10 8 8 8 8 9 10 13 15 13 15 19 18 16 22 24 24 24
16 17 18 18 18 18 16 17 17 16 15 15 14 13 12 11 10 10 9 8 8 8 9 9 10 8 10 10 9 11 10 12 11 20 16 14 17 16 16 16 15 23 21
15 17 17 17 18 19 19 18 17 16 15 14 13 13 12 11 10 9 8 8 8 8 9 10 11 10 11 9 10 11 10 10 12 13 15 13 14 13 15 15 15 16 18
14 16 16 18 17 17 17 17 18 17 16 15 14 13 12 11 10 9 8 8 8 8 10 10 11 10 11 11 12 13 13 12 12 13 13 14 13 14 13 14 14 9 9
15 16 16 16 16 17 17 16 17 16 15 15 14 12 11 9 8 9 8 8 8 9 10 10 10 11 16 18 12 13 13 10 11 12 13 13 14 13 11 13 9 7 11
15 17 15 15 16 17 17 17 17 15 15 14 14 13 11 8 13 14 10 8 9 9 9 9 9 13 14 18 19 22 19 13 13 13 13 16 17 15 13 13 9 8 7
15 16 16 16 17 17 17 17 16 16 16 15 13 12 11 10 15 14 13 8 7 8 8 8 9 9 13 12 16 21 19 23 24 18 17 16 19 18 15 17 9 9 10
15 16 17 18 18 17 18 18 17 15 16 14 13 12 11 9 14 14 12 8 7 8 7 9 9 11 12 13 13 12 12 14 16 13 15 17 17 18 18 15 9 9 7
17 18 18 19 19 19 19 18 16 15 14 14 12 12 11 9 14 13 11 7 8 9 8 8 9 11 16 20 13 12 14 16 17 25 26 29 31 33 21 6 7 7 6
17 17 18 18 19 19 18 17 15 14 13 10 11 12 13 10 12 12 10 6 8 7 8 9 13 14 17 19 13 13 15 17 14 16 14 18 21 18 10 8 6 5 3
16 16 17 17 18 18 17 15 14 14 13 12 12 10 10 9 8 11 12 8 7 7 7 7 8 15 16 20 19 13 14 16 15 12 12 10 11 12 3 2 2 3 3
14 16 16 17 14 14 18 15 15 14 13 13 12 8 6 7 10 11 13 13 10 8 8 7 9 14 16 18 16 18 22 14 9 10 10 9 9 9 8 5 4 5 6
12 14 15 16 14 15 16 16 12 13 11 10 9 8 6 5 5 11 12 11 12 8 6 9 15 13 15 13 15 18 16 7 8 9 10 9 8 9 10 5 4 2 5
13 13 13 15 14 14 11 12 11 10 9 8 7 7 6 5 5 5 4 5 7 7 7 7 8 10 12 11 9 8 8 6 8 8 8 9 8 7 7 5 2 5 3
13 13 13 13 13 13 12 11 10 10 10 9 6 6 7 5 6 7 6 4 4 6 7 5 5 4 6 7 7 7 8 6 7 9 8 9 9 8 7 2 2 3 4
12 11 11 12 11 11 11 9 10 13 12 10 12 8 4 6 8 8 9 7 9 9 6 5 5 5 6 7 7 8 7 8 7 9 8 7 8 8 7 3 3 5 8
11 12 11 13 11 11 10 10 8 7 10 9 11 11 9 7 8 7 6 7 8 7 3 4 5 4 6 7 7 7 7 8 8 6 8 7 7 8 9 3 6 6 8
12 19 10 10 10 9 8 7 7 7 6 5 4 6 7 7 5 4 5 4 3 2 3 4 4 4 5 7 7 7 6 8 6 7 8 8 7 7 7 4 7 7 9
9 8 8 8 7 8 6 5 5 6 6 5 4 3 5 5 4 5 4 3 3 4 3 4 4 4 5 6 6 6 7 7 7 7 7 7 8 7 7 7 9 12 12
7 14 9 6 5 5 5 6 5 5 6 5 5 4 3 3 2 3 3 3 3 3 3 4 4 4 6 5 5 5 7 8 7 6 7 7 7 6 7 7 9 13 12
5 6 12 6 6 6 6 6 6 6 6 5 4 4 7 4 4 4 4 3 3 4 3 4 5 5 5 5 6 6 8 8 6 5 7 8 7 8 6 6 7 11 12
5 6 7 7 6 5 5 6 6 6 6 5 4 3 2 2 3 3 4 3 3 3 4 4 5 6 5 5 6 6 8 8 7 6 6 8 9 8 6 7 7 12 11
7 6 6 5 6 10 7 5 5 5 5 4 4 3 1 1 2 3 3 2 3 4 4 4 5 6 5 5 5 6 6 7 8 7 8 8 8 7 7 6 7 13 13
8 8 8 7 6 6 6 5 4 5 4 4 3 2 1 1 2 3 2 2 3 4 4 5 5 7 7 7 7 9 7 7 8 8 11 10 10 9 7 7 7 14 14
7 7 7 7 6 5 5 4 4 4 3 3 3 2 1 3 3 2 2 2 3 5 6 6 5 8 9 10 11 12 11 11 11 14 8 11 14 13 9 7 8 11 16
7 7 6 5 5 5 5 5 4 3 2 3 3 1 1 2 1 2 3 4 4 5 8 6 8 10 10 9 11 13 14 14 13 18 11 10 9 9 7 9 12 10 16
Wind_Direction
208 200 191 186 183 179 178 178 177 174 177 178 178 184 188 193 195 203 213 225 233 252 253 257 266 271 270 271 270 268 265 265 275 286 289 289 289 289 281 275 270 266 269
199 199 198 185 180 179 179 179 177 177 178 179 180 185 189 193 196 202 213 225 235 245 260 266 267 272 274 274 271 269 270 271 272 283 290 292 290 287 274 276 270 266 262
200 195 196 192 186 182 178 178 178 176 179 182 181 184 187 192 194 204 215 229 236 251 261 266 272 276 275 276 277 278 278 277 274 275 286 285 280 283 285 277 271 263 251
201 199 192 194 189 183 176 176 176 179 176 179 183 185 187 188 194 199 208 225 242 253 260 263 267 266 271 285 281 280 278 279 276 277 280 287 285 280 276 274 274 253 236
203 201 202 194 188 183 177 175 175 176 177 178 178 184 185 187 194 197 208 226 241 257 261 262 259 265 278 294 294 292 291 287 281 287 285 288 286 284 281 289 251 240 232
211 205 199 193 189 184 177 174 171 172 176 176 180 180 183 194 198 200 208 228 243 252 259 268 271 287 294 293 294 300 293 291 294 288 288 286 286 298 286 285 242 232 242
226 208 195 191 190 184 175 174 174 171 172 178 178 179 188 195 197 209 219 242 242 251 259 271 284 293 295 293 294 290 289 286 285 292 287 284 286 280 281 290 220 222 238
231 212 197 188 190 183 174 175 173 170 173 175 177 182 185 193 202 211 224 243 241 248 260 275 281 288 286 283 282 283 292 288 283 284 281 285 288 288 276 269 217 224 216
230 216 200 188 186 184 178 173 170 167 168 172 175 177 184 194 204 211 222 231 246 262 271 273 277 280 278 290 312 300 297 297 298 297 297 305 300 296 281 186 208 181 223
231 217 201 192 184 184 176 167 166 165 168 165 170 180 188 193 199 211 218 231 250 269 274 274 278 288 296 308 310 314 310 306 306 315 314 310 311 314 206 211 160 188 223
224 211 198 188 183 179 168 160 159 160 159 167 169 175 182 194 199 210 221 225 251 272 274 282 289 298 302 311 319 314 306 307 331 314 311 312 315 326 173 170 147 174 241
207 199 187 179 175 169 162 156 156 154 157 166 170 167 184 194 209 215 226 232 256 265 268 280 287 291 303 316 321 315 314 329 319 313 312 320 325 330 337 333 310 270 234
191 177 173 169 169 164 155 150 149 153 158 165 171 173 179 185 201 222 222 247 268 265 266 279 282 296 308 315 315 322 324 319 317 320 319 321 317 322 319 291 283 196 159
173 169 162 157 152 154 149 148 146 152 156 164 171 177 178 182 194 195 223 248 255 267 278 286 283 288 302 308 318 332 326 317 321 318 318 319 319 334 327 309 46 120 83
163 155 156 139 144 139 137 143 147 159 161 164 176 176 175 189 200 203 210 228 255 258 274 277 278 288 309 317 322 336 326 318 328 320 326 330 328 329 331 204 187 137 76
145 146 144 129 135 127 122 112 117 138 150 162 164 169 176 174 188 203 223 261 280 279 273 269 270 288 307 313 319 328 323 324 336 321 326 332 325 326 327 238 129 148 111
129 126 119 121 123 120 122 123 120 129 139 159 160 162 171 184 207 213 241 261 270 274 253 263 267 286 303 306 309 319 318 319 338 319 314 328 329 327 328 216 163 146 129
76 87 95 99 103 105 110 116 131 140 153 148 176 174 184 185 198 227 244 239 239 219 243 261 269 280 293 300 305 311 309 315 329 324 318 323 335 323 315 254 159 159 151
68 67 71 75 81 93 100 110 138 167 155 150 165 169 163 177 216 252 235 219 235 259 261 267 274 277 284 292 297 298 302 307 318 321 315 321 325 320 309 301 166 157 156
110 104 100 101 107 124 148 161 159 145 150 170 182 163 148 169 208 212 212 205 229 253 271 277 288 284 273 283 294 295 302 305 311 317 314 316 309 309 304 313 171 160 171
128 142 149 137 151 158 157 152 146 151 166 176 169 178 179 198 225 228 230 218 244 266 281 296 301 292 288 294 304 304 301 303 299 306 310 306 308 308 304 293 210 173 167
126 136 147 145 140 129 135 146 148 148 155 165 164 157 176 179 221 241 220 235 263 275 294 296 293 286 290 296 298 300 300 298 296 299 305 306 309 298 298 283 252 174 173
132 132 123 116 128 138 136 135 139 148 151 147 142 154 163 211 243 248 241 246 281 299 313 303 297 297 299 292 290 287 286 293 301 304 307 308 296 293 277 265 295 183 175
121 123 124 125 125 119 135 145 140 142 140 134 127 133 195 229 249 264 270 280 288 301 300 299 299 296 300 300 301 294 288 290 303 303 303 301 298 294 283 265 257 194 180
105 112 131 128 125 128 118 119 133 136 131 131 134 158 226 242 233 261 309 303 303 298 304 307 306 302 297 298 300 297 293 297 299 303 303 301 294 288 269 250 241 194 180
106 115 114 121 128 132 136 135 130 123 133 135 142 149 246 257 282 322 319 299 293 306 305 304 315 315 308 304 304 306 301 301 314 309 308 301 294 288 266 232 230 198 175